Hourly Data Report for October 26, 2015

All times are specified in Local Standard Time (LST). Add 1 hour to adjust for Daylight Saving Time where and when it is observed.

EUREKA CLIMATE
NUNAVUT

79°59'21.000" N
85°56'02.000" W
10.00 m
2401199
71613
NEK

Download Data

Hourly Data (October 2015)
Hourly Data Report for October 26, 2015
Temp Definition
°C
Dew Point Temp Definition
°C
Rel Hum Definition
%
Wind Dir Definition
10's deg

Wind Spd Definition
km/h
Visibility Definition
km
Stn Press Definition
kPa
Hmdx Definition


Wind Chill Definition


Weather Definition


TIME
00:00 -23.7 -26.9 75 34 14   100.84   -33 LegendNANA
01:00 -22.7 -26.4 72 34 13   100.84   -32 LegendNANA
02:00 -23.1 -27.2 69 33 18   100.87   -34 LegendNANA
03:00 -23.2 -27.4 69 36 13   100.89   -32 LegendNANA
04:00 -27.1 -30.2 75 11 12   100.90   -37 LegendNANA
05:00 -27.1 -29.9 77 12 9   100.90   -35 LegendNANA
06:00 -27.6 -30.3 78 10 7   100.91   -34 LegendNANA
07:00 -28.4 -31.2 77 11 12   100.92   -38 LegendNANA
08:00 -28.3 -30.8 79 12 6   100.93   -35 LegendNANA
09:00 -28.6 -31.2 79 12 6   100.90   -35 LegendNANA
10:00 -29.1 -32.0 76 11 10   100.89   -38 LegendNANA
11:00 -28.6 -31.1 79 7 4   100.86   -33 LegendNANA
12:00 -28.6 -31.3 78 11 5   100.83   -34 LegendNANA
13:00 -29.0 -31.7 77 10 7   100.83   -36 LegendNANA
14:00 -29.1 -31.8 78 11 10   100.85   -38 LegendNANA
15:00 -28.5 -31.3 77 11 8   100.86   -36 LegendNANA
16:00 -28.0 -30.7 77 11 7   100.87   -35 LegendNANA
17:00 -28.8 -31.3 79 11 11   100.87   -38 LegendNANA
18:00 -28.4 -31.1 77 10 5   100.88   -34 LegendNANA
19:00 -29.0 -31.8 77 10 3   100.89   -32 LegendNANA
20:00 -28.5 -31.4 76 35 3   100.88   -32 LegendNANA
21:00 -27.5 -30.2 77 10 3   100.87   -31 LegendNANA
22:00 -26.0 -28.8 77 3 15   100.86   -36 LegendNANA
23:00 -29.3 -32.0 77 10 13   100.88   -40 LegendNANA

Notes on Data Quality.

Legend

  • E = Estimated
  • M = Missing
  • NA = Not Available
  • ‡ = Partner data that is not subject to review by the National Climate Archives
Date modified: